Location: Unnamed
(48.6007°N, 2.4808°E)
Time: 10:00:49
(UTC+02:00)

PCSat - Pass Details

Date: 04 April 2023
Orbit: 783 x 794 km, 67.1° (Epoch: 29 May)

Event Time Altitude Azimuth Distance (km) Brightness Sun altitude
Rises 23:31:35 0° 327° (NNW) 3,302 14.0 -27.4°
Reaches altitude 10° 23:34:13 10° 337° (NNW) 2,371 12.9 -27.7°
Maximum altitude 23:39:11 35° 42° (NE) 1,273 10.6 -28.2°
Enters shadow 23:39:19 35° 45° (NE) 1,274 10.6 -28.2°
